Stations météo

réclame
Mon MeteoGroup
Kew Gardens, Grande-Bretagne (99095): Température de l'air & dewpoint: 20.09.2020 16:00:00 - 26.09.2020 16:00:00 (BST)Kew Gardens, Grande-Bretagne (99095): Température de l'air -20cm & Température de l'air -100cm: 20.09.2020 16:00:00 - 26.09.2020 16:00:00 (BST)Kew Gardens, Grande-Bretagne (99095): Quantités de précipitations: 20.09.2020 16:00:00 - 26.09.2020 16:00:00 (BST)
Date & Time tt [°C] td [°C] tt -20cm [°C] tt -100cm [°C] rr [mm]
26.09.2020 16:00:00 - - - - -
26.09.2020 15:00:00 12,5 4,5 - - 0,0
26.09.2020 14:00:00 12,4 4,3 - - 0,0
26.09.2020 13:00:00 12,7 3,1 - - 0,0
26.09.2020 12:00:00 12,4 3,4 - - 0,0
26.09.2020 11:00:00 11,4 3,1 - - 0,0
26.09.2020 10:00:00 10,1 2,7 - - 0,0
26.09.2020 09:00:00 8,7 2,0 - - 0,0
26.09.2020 08:00:00 7,1 1,6 - - 0,0
26.09.2020 07:00:00 6,9 1,7 - - 0,0
26.09.2020 06:00:00 7,3 2,2 - - 0,0
26.09.2020 05:00:00 7,6 2,8 - - 0,0
26.09.2020 04:00:00 8,0 3,5 - - 0,0
26.09.2020 03:00:00 8,3 4,1 - - 0,0
26.09.2020 02:00:00 8,8 4,7 - - 0,0
26.09.2020 01:00:00 9,7 3,8 - - 0,0
26.09.2020 00:00:00 10,3 4,4 - - 0,0
25.09.2020 23:00:00 10,9 4,6 - - 0,0
25.09.2020 22:00:00 11,7 3,9 - - 0,0
25.09.2020 21:00:00 11,8 3,8 - - -
25.09.2020 20:00:00 12,3 3,5 - - 0,0
25.09.2020 19:00:00 13,2 2,0 - - 0,0
25.09.2020 18:00:00 14,1 1,2 - - 0,0
25.09.2020 17:00:00 15,0 2,7 - - 0,0
25.09.2020 16:00:00 14,3 2,2 - - 0,0
25.09.2020 15:00:00 14,2 3,4 - - 0,0
25.09.2020 14:00:00 14,1 3,0 - - 0,2
25.09.2020 13:00:00 13,5 5,0 - - 0,0
25.09.2020 12:00:00 12,7 4,7 - - 0,0
25.09.2020 11:00:00 11,6 5,4 - - 0,0
25.09.2020 10:00:00 10,1 5,8 15,2 18,4 0,0
25.09.2020 09:00:00 9,1 6,5 - - 0,4
25.09.2020 08:00:00 8,7 7,0 - - -
25.09.2020 07:00:00 8,7 6,8 - - 0,0
25.09.2020 06:00:00 7,7 6,6 - - 0,0
25.09.2020 05:00:00 6,3 5,5 - - 0,0
25.09.2020 04:00:00 6,5 5,4 - - 0,0
25.09.2020 03:00:00 7,2 6,5 - - 0,0
25.09.2020 02:00:00 6,0 5,8 - - 0,0
25.09.2020 01:00:00 6,1 5,8 - - 0,0
25.09.2020 00:00:00 6,0 5,5 - - 0,0
24.09.2020 23:00:00 6,5 5,7 - - 0,0
24.09.2020 22:00:00 7,6 6,5 - - 0,0
24.09.2020 21:00:00 9,0 7,3 - - 0,0
24.09.2020 20:00:00 10,2 7,9 - - -
24.09.2020 19:00:00 11,4 7,5 - - 0,0
24.09.2020 18:00:00 11,9 7,2 - - 0,0
24.09.2020 17:00:00 12,3 7,5 - - 0,0
24.09.2020 16:00:00 11,5 8,1 - - 0,0
24.09.2020 15:00:00 10,8 8,4 - - 1,2
24.09.2020 14:00:00 12,3 5,6 - - 0,0
24.09.2020 13:00:00 15,5 4,9 - - 0,0
24.09.2020 12:00:00 16,0 7,3 - - 0,0
24.09.2020 11:00:00 13,7 7,3 - - 0,0
24.09.2020 10:00:00 13,0 8,5 16,7 18,7 0,0
24.09.2020 09:00:00 11,7 9,3 - - 0,0
24.09.2020 08:00:00 10,0 8,9 - - 0,2
24.09.2020 07:00:00 9,6 9,1 - - 2,6
24.09.2020 06:00:00 9,0 8,6 - - 1,0
24.09.2020 05:00:00 8,0 7,5 - - -
24.09.2020 04:00:00 6,7 6,0 - - 0,0
24.09.2020 03:00:00 7,3 6,3 - - 0,0
24.09.2020 02:00:00 7,7 5,8 - - 0,0
24.09.2020 01:00:00 9,0 6,6 - - 0,0
24.09.2020 00:00:00 10,0 7,7 - - 0,0
23.09.2020 23:00:00 11,4 8,3 - - 0,0
23.09.2020 22:00:00 12,1 9,8 - - 0,2
23.09.2020 21:00:00 12,3 9,4 - - 0,0
23.09.2020 20:00:00 13,9 13,1 - - 0,0
23.09.2020 19:00:00 14,3 13,5 - - 0,4
23.09.2020 18:00:00 14,6 12,6 - - 0,8
23.09.2020 17:00:00 17,5 14,3 - - 0,2
23.09.2020 16:00:00 16,8 13,2 - - 0,0
23.09.2020 15:00:00 17,4 14,8 - - 0,0
23.09.2020 14:00:00 16,8 15,1 - - 1,0
23.09.2020 13:00:00 16,4 14,0 - - 0,6
23.09.2020 12:00:00 18,4 13,2 - - 0,0
23.09.2020 11:00:00 17,8 13,4 - - 0,0
23.09.2020 10:00:00 16,6 14,7 18,2 18,7 0,0
23.09.2020 09:00:00 15,8 14,6 - - 0,0
23.09.2020 08:00:00 15,5 14,2 - - 0,0
23.09.2020 07:00:00 15,4 14,3 - - 0,0
23.09.2020 06:00:00 16,2 15,4 - - 1,0
23.09.2020 05:00:00 15,9 14,5 - - 0,0
23.09.2020 04:00:00 15,7 14,1 - - -
23.09.2020 03:00:00 15,8 14,0 - - 0,0
23.09.2020 02:00:00 15,9 13,2 - - 0,0
23.09.2020 01:00:00 16,4 13,5 - - 0,0
23.09.2020 00:00:00 15,9 13,5 - - 0,0
22.09.2020 23:00:00 17,4 14,0 - - 0,0
22.09.2020 22:00:00 17,7 14,2 - - 0,0
22.09.2020 21:00:00 17,6 14,3 - - 0,0
22.09.2020 20:00:00 18,2 14,3 - - 0,0
22.09.2020 19:00:00 18,8 14,1 - - 0,0
22.09.2020 18:00:00 19,8 13,6 - - -
22.09.2020 17:00:00 21,0 13,4 - - 0,0
22.09.2020 16:00:00 23,3 13,5 - - -
22.09.2020 15:00:00 25,0 10,8 - - 0,0
22.09.2020 14:00:00 24,6 5,8 - - 0,0
22.09.2020 13:00:00 24,1 10,9 - - 0,0
22.09.2020 12:00:00 23,2 8,4 - - 0,0
22.09.2020 11:00:00 21,6 9,4 - - 0,0
22.09.2020 10:00:00 19,9 13,5 17,9 18,7 0,0
22.09.2020 09:00:00 14,8 14,1 - - 0,0
22.09.2020 08:00:00 11,7 11,5 - - 0,0
22.09.2020 07:00:00 10,4 10,1 - - 0,0
22.09.2020 06:00:00 10,7 10,2 - - 0,0
22.09.2020 05:00:00 10,8 10,2 - - 0,0
22.09.2020 04:00:00 11,1 10,5 - - 0,0
22.09.2020 03:00:00 11,4 10,6 - - 0,0
22.09.2020 02:00:00 11,7 10,4 - - 0,0
22.09.2020 01:00:00 12,2 10,5 - - 0,0
22.09.2020 00:00:00 12,6 10,6 - - 0,0
21.09.2020 23:00:00 13,2 10,4 - - 0,0
21.09.2020 22:00:00 13,8 10,2 - - 0,0
21.09.2020 21:00:00 14,7 10,6 - - 0,0
21.09.2020 20:00:00 16,1 10,1 - - 0,0
21.09.2020 19:00:00 18,6 11,1 - - 0,0
21.09.2020 18:00:00 23,5 9,5 - - 0,0
21.09.2020 17:00:00 24,6 10,1 - - 0,0
21.09.2020 16:00:00 23,5 9,3 - - 0,0
21.09.2020 15:00:00 23,1 9,8 - - 0,0
21.09.2020 14:00:00 22,5 11,4 - - 0,0
21.09.2020 13:00:00 19,0 11,3 - - 0,0
21.09.2020 12:00:00 17,9 12,3 - - -
21.09.2020 11:00:00 15,1 12,5 - - 0,0
21.09.2020 10:00:00 14,7 12,9 - - 0,0
21.09.2020 09:00:00 14,2 13,0 - - 0,0
21.09.2020 08:00:00 14,0 13,0 - - 0,0
21.09.2020 07:00:00 14,0 13,1 - - 0,0
21.09.2020 06:00:00 14,2 12,7 - - 0,0
21.09.2020 05:00:00 14,7 12,8 - - 0,0
21.09.2020 04:00:00 15,0 12,7 - - 0,0
21.09.2020 03:00:00 15,1 12,6 - - 0,0
21.09.2020 02:00:00 15,4 12,8 - - 0,0
21.09.2020 01:00:00 15,4 12,6 - - 0,0
21.09.2020 00:00:00 16,0 12,1 - - 0,0
20.09.2020 23:00:00 17,0 11,6 - - 0,0
20.09.2020 22:00:00 18,1 11,1 - - 0,0
20.09.2020 21:00:00 17,2 8,7 - - 0,0
20.09.2020 20:00:00 20,8 10,4 - - 0,0
20.09.2020 19:00:00 22,2 10,2 - - 0,0
20.09.2020 18:00:00 23,5 9,4 - - 0,0
20.09.2020 17:00:00 24,4 9,8 - - 0,0
20.09.2020 16:00:00 24,7 9,0 - - 0,0

tt = Température de l'air
td = dewpoint
tt -20cm = Température de l'air -20cm
tt -100cm = Température de l'air -100cm
rr = Quantités de précipitations

stations d'obs. à proximité